DW7787 Weather Reports


Display with metric or nautical units.
time (UTC)temp
F
wind
direction
speed
MPH
gust
MPH
rain 1hr
in
rain 24hr
in
rain mn
in
humidity
%
barometer
mb
20260510030530 64 88 0.0 1.0 0.00 0.00 0.00 84 1013.6
20260510030031 64 88 0.0 1.0 0.00 0.00 0.00 84 1013.7
20260510025528 65 88 0.0 1.0 0.00 0.00 0.00 84 1013.6
20260510025021 65 88 0.0 1.0 0.00 0.00 0.00 84 1013.6
20260510024515 65 88 0.0 0.0 0.00 0.00 0.00 84 1013.6
20260510024015 65 88 0.0 1.0 0.00 0.00 0.00 83 1013.6
20260510023814 65 88 0.0 1.0 0.00 0.00 0.00 83 1013.6
20260510023311 65 88 0.0 1.0 0.00 0.00 0.00 82 1013.5
20260510022512 65 88 0.0 0.0 0.00 0.00 0.00 81 1013.5
20260510022013 65 88 0.0 0.0 0.00 0.00 0.00 81 1013.5
20260510021513 65 88 0.0 0.0 0.00 0.00 0.00 81 1013.6
20260510021013 66 88 0.0 0.0 0.00 0.00 0.00 81 1013.5
20260510020513 66 88 0.0 0.0 0.00 0.00 0.00 80 1013.4
20260510020013 66 88 0.0 0.0 0.00 0.00 0.00 80 1013.4
20260510015517 66 88 0.0 0.0 0.00 0.00 0.00 80 1013.4
20260510015013 66 88 0.0 0.0 0.00 0.00 0.00 80 1013.5
20260510014513 66 88 0.0 0.0 0.00 0.00 0.00 79 1013.2
20260510014013 67 88 0.0 1.0 0.00 0.00 0.00 79 1013.2
20260510013513 67 88 0.0 1.0 0.00 0.00 0.00 79 1013.1
20260510013012 67 88 0.0 0.0 0.00 0.00 0.00 78 1013.1
20260510012512 67 88 0.0 1.0 0.00 0.00 0.00 78 1013.1
20260510012013 67 88 0.0 1.0 0.00 0.00 0.00 77 1012.9
20260510011511 67 88 0.0 1.0 0.00 0.00 0.00 77 1012.8
20260510011012 68 88 0.0 1.0 0.00 0.00 0.00 77 1012.7
20260510010513 68 88 0.0 1.0 0.00 0.00 0.00 76 1012.7
20260510010014 68 88 0.0 1.0 0.00 0.00 0.00 76 1012.7
20260510005513 68 88 0.0 2.0 0.00 0.00 0.00 76 1012.7
20260510005010 68 88 0.0 2.0 0.00 0.00 0.00 76 1012.6
20260510004512 68 94 0.0 2.0 0.00 0.00 0.00 75 1012.5
20260510004011 69 94 0.0 2.0 0.00 0.00 0.00 75 1012.3
20260510003511 69 196 0.0 3.0 0.00 0.00 0.00 75 1012.2
20260510003013 69 196 0.0 3.0 0.00 0.00 0.00 75 1012.0
20260510002512 69 198 0.0 2.0 0.00 0.00 0.00 74 1012.0
20260510002010 69 199 0.0 1.0 0.00 0.00 0.00 74 1011.8
20260510001508 69 199 0.0 2.0 0.00 0.00 0.00 74 1011.7
20260510001321 70 199 1.0 3.0 0.00 0.00 0.00 73 1011.8
20260510000504 70 80 1.0 3.0 0.00 0.00 0.00 73 1011.9
20260510000005 70 171 0.0 2.0 0.00 0.00 0.00 73 1011.8
20260509235503 70 67 1.0 2.0 0.00 0.00 0.00 72 1011.8
20260509235003 71 266 1.0 2.0 0.00 0.00 0.00 72 1011.8
20260509234508 71 129 1.0 3.0 0.00 0.00 0.00 73 1011.5
20260509234006 71 207 1.0 3.0 0.00 0.00 0.00 72 1011.6
20260509233505 71 215 1.0 2.0 0.00 0.00 0.00 71 1011.5
20260509233006 71 150 0.0 2.0 0.00 0.00 0.00 71 1011.6
20260509232502 71 53 0.0 2.0 0.00 0.00 0.00 71 1011.8
20260509232002 71 53 0.0 2.0 0.00 0.00 0.00 71 1011.6
20260509231504 72 5 0.0 2.0 0.00 0.00 0.00 70 1011.7
20260509231006 72 5 1.0 2.0 0.00 0.00 0.00 70 1011.6
20260509230504 72 143 1.0 2.0 0.00 0.00 0.00 69 1011.5
20260509230002 72 244 1.0 2.0 0.00 0.00 0.00 69 1011.5
20260509225612 72 214 1.0 3.0 0.00 0.00 0.00 68 1011.5
20260509225551 72 71 1.0 3.0 0.00 0.00 0.00 69 1011.4
20260509224502 72 128 1.0 3.0 0.00 0.00 0.00 68 1011.4
20260509224002 73 167 1.0 3.0 0.00 0.00 0.00 68 1011.1
20260509223502 73 348 1.0 4.0 0.00 0.00 0.00 67 1011.2
20260509223001 73 238 1.0 4.0 0.00 0.00 0.00 69 1011.2
20260509222459 73 211 1.0 3.0 0.00 0.00 0.00 69 1011.2
20260509221956 73 213 1.0 3.0 0.00 0.00 0.00 69 1011.2
20260509221454 73 196 2.0 4.0 0.00 0.00 0.00 68 1011.1
20260509221302 73 190 2.0 4.0 0.00 0.00 0.00 67 1011.1
20260509220759 73 155 2.0 4.0 0.00 0.00 0.00 68 1011.1
20260509220133 73 58 1.0 5.0 0.00 0.00 0.00 68 1010.9
20260509220056 73 196 2.0 4.0 0.00 0.00 0.00 67 1011.1
20260509214952 73 222 2.0 5.0 0.00 0.00 0.00 67 1011.1
20260509214450 73 190 1.0 3.0 0.00 0.00 0.00 68 1010.9
20260509214255 73 127 1.0 4.0 0.00 0.00 0.00 68 1011.0
20260509213455 73 109 1.0 4.0 0.00 0.00 0.00 68 1010.9
20260509212945 73 226 1.0 4.0 0.00 0.00 0.00 67 1011.0
20260509212438 73 223 1.0 2.0 0.00 0.00 0.00 68 1011.1
20260509211932 73 145 1.0 4.0 0.00 0.00 0.00 68 1011.1
20260509211430 73 103 1.0 4.0 0.00 0.00 0.00 67 1010.9
20260509210932 73 126 1.0 3.0 0.00 0.00 0.00 68 1010.9
20260509210737 73 102 2.0 5.0 0.00 0.00 0.00 66 1010.9
20260509210227 73 215 2.0 5.0 0.00 0.00 0.00 67 1010.9
20260509205431 73 203 2.0 4.0 0.00 0.00 0.00 68 1010.9
20260509205239 73 123 2.0 6.0 0.00 0.00 0.00 69 1010.7
20260509204429 73 215 2.0 6.0 0.00 0.00 0.00 68 1011.0
20260509203930 72 188 2.0 8.0 0.00 0.00 0.00 68 1011.1
20260509203431 72 146 2.0 8.0 0.00 0.00 0.00 68 1011.1
20260509202929 73 118 1.0 4.0 0.00 0.00 0.00 68 1011.0
20260509202429 73 132 2.0 7.0 0.00 0.00 0.00 68 1011.1
20260509201930 73 185 2.0 7.0 0.00 0.00 0.00 67 1011.2
20260509201433 73 163 1.0 4.0 0.00 0.00 0.00 67 1011.2
20260509200929 73 194 1.0 6.0 0.00 0.00 0.00 66 1011.0
20260509200428 74 54 1.0 6.0 0.00 0.00 0.00 68 1011.0
20260509195930 73 195 1.0 4.0 0.00 0.00 0.00 68 1011.2
20260509195727 73 177 1.0 4.0 0.00 0.00 0.00 67 1011.3
20260509194921 73 221 1.0 4.0 0.00 0.00 0.00 67 1011.2
20260509194716 73 176 2.0 8.0 0.00 0.00 0.00 68 1011.2
20260509194214 73 214 2.0 8.0 0.00 0.00 0.00 67 1011.3
20260509193409 74 202 1.0 4.0 0.00 0.00 0.00 66 1011.3
20260509192909 73 22 2.0 6.0 0.00 0.00 0.00 69 1011.4
20260509192409 73 145 2.0 6.0 0.00 0.00 0.00 67 1011.3
20260509191908 73 187 1.0 6.0 0.00 0.00 0.00 69 1011.3
20260509191408 72 155 2.0 6.0 0.00 0.00 0.00 69 1011.3
20260509190908 73 42 2.0 5.0 0.00 0.00 0.00 69 1011.3
20260509190407 73 205 2.0 9.0 0.00 0.00 0.00 68 1011.5
20260509185909 73 63 3.0 9.0 0.00 0.00 0.00 66 1011.5
20260509185407 74 75 2.0 6.0 0.00 0.00 0.00 65 1011.6
20260509184907 74 157 1.0 4.0 0.00 0.00 0.00 67 1011.5
20260509184408 73 175 1.0 4.0 0.00 0.00 0.00 70 1011.4
20260509183908 72 150 1.0 4.0 0.00 0.00 0.00 70 1011.7
20260509183409 72 73 1.0 4.0 0.00 0.00 0.00 69 1011.6
20260509182909 72 331 2.0 3.0 0.00 0.00 0.00 69 1011.7
20260509182403 71 69 1.0 4.0 0.00 0.00 0.00 70 1011.7
20260509182013 71 178 1.0 3.0 0.00 0.00 0.00 71 1011.7
20260509181950 71 237 1.0 4.0 0.00 0.00 0.00 70 1011.6
20260509180903 71 212 1.0 4.0 0.00 0.00 0.00 71 1011.7
20260509180705 71 225 1.0 4.0 0.00 0.00 0.00 71 1011.8
20260509175850 71 297 1.0 4.0 0.00 0.00 0.00 71 1011.9
20260509175638 71 210 2.0 4.0 0.00 0.00 0.00 72 1012.0
20260509174839 71 173 2.0 4.0 0.00 0.00 0.00 71 1012.1
20260509174334 71 72 2.0 4.0 0.00 0.00 0.00 71 1012.2
20260509173834 70 69 2.0 4.0 0.00 0.00 0.00 71 1012.1
20260509173333 70 65 1.0 3.0 0.00 0.00 0.00 72 1012.1
20260509172835 70 48 1.0 3.0 0.00 0.00 0.00 72 1012.3
20260509172635 70 174 1.0 4.0 0.00 0.00 0.00 73 1012.3
20260509171833 70 230 1.0 4.0 0.00 0.00 0.00 73 1012.3
20260509171335 69 175 1.0 2.0 0.00 0.00 0.00 74 1012.4
20260509170835 69 115 1.0 3.0 0.00 0.00 0.00 73 1012.4
20260509170333 69 205 2.0 6.0 0.00 0.00 0.00 72 1012.5
20260509165833 69 48 2.0 6.0 0.00 0.00 0.00 73 1012.6
20260509165334 70 232 1.0 5.0 0.00 0.00 0.00 72 1012.6
20260509164834 70 250 1.0 3.0 0.00 0.00 0.00 72 1012.6
20260509164335 69 344 1.0 3.0 0.00 0.00 0.00 74 1012.6
20260509163834 69 188 1.0 3.0 0.00 0.00 0.00 74 1012.7
20260509163334 69 11 1.0 3.0 0.00 0.00 0.00 74 1012.8
20260509162833 69 215 1.0 4.0 0.00 0.00 0.00 74 1012.9
20260509162331 68 192 1.0 4.0 0.00 0.00 0.00 75 1013.0
20260509161831 68 156 1.0 4.0 0.00 0.00 0.00 74 1013.0
20260509161331 68 204 1.0 3.0 0.00 0.00 0.00 74 1013.2
20260509160831 68 163 1.0 4.0 0.00 0.00 0.00 75 1013.2
20260509160337 68 189 1.0 4.0 0.00 0.00 0.00 75 1013.2
20260509155835 68 174 1.0 4.0 0.00 0.00 0.00 75 1013.4
20260509155626 68 265 1.0 4.0 0.00 0.00 0.00 76 1013.4
20260509154831 67 93 1.0 4.0 0.00 0.00 0.00 76 1013.3
20260509154330 67 250 1.0 4.0 0.00 0.00 0.00 76 1013.3
20260509154154 67 200 1.0 4.0 0.00 0.00 0.00 77 1013.3
20260509153328 67 207 1.0 4.0 0.00 0.00 0.00 77 1013.2
20260509152828 67 199 1.0 4.0 0.00 0.00 0.00 78 1013.2
20260509152329 67 214 1.0 3.0 0.00 0.00 0.00 79 1013.1
20260509151827 66 127 1.0 3.0 0.00 0.00 0.00 80 1013.1
20260509151327 66 121 1.0 3.0 0.00 0.00 0.00 80 1013.1
20260509151131 66 148 1.0 3.0 0.00 0.00 0.00 82 1013.0
20260509150326 65 47 0.0 2.0 0.00 0.00 0.00 81 1013.1
20260509150138 65 125 1.0 2.0 0.00 0.00 0.00 82 1013.1
20260509145325 65 164 1.0 5.0 0.00 0.00 0.00 83 1013.2
20260509144322 64 257 1.0 5.0 0.00 0.00 0.00 83 1013.2
20260509144131 64 194 1.0 5.0 0.00 0.00 0.00 84 1013.2
20260509143322 64 205 1.0 3.0 0.00 0.00 0.00 85 1013.2
20260509142953 64 98 1.0 3.0 0.00 0.00 0.00 85 1013.2
20260509142925 64 65 1.0 3.0 0.00 0.00 0.00 85 1013.1
20260509141823 63 134 1.0 3.0 0.00 0.00 0.00 86 1013.2
20260509141327 63 338 1.0 3.0 0.00 0.00 0.00 87 1013.2
20260509140823 63 223 1.0 3.0 0.00 0.00 0.00 87 1013.3
20260509140632 62 202 1.0 3.0 0.00 0.00 0.00 87 1013.2
20260509135823 62 100 1.0 2.0 0.00 0.00 0.00 88 1013.3
20260509135323 62 108 1.0 3.0 0.00 0.00 0.00 88 1013.5
20260509134823 62 225 1.0 4.0 0.00 0.00 0.00 88 1013.6
20260509134325 62 325 1.0 4.0 0.00 0.00 0.00 89 1013.6
20260509133823 62 30 1.0 4.0 0.00 0.00 0.00 89 1013.6
20260509133627 62 132 1.0 4.0 0.00 0.00 0.00 90 1013.5
20260509132822 61 181 1.0 3.0 0.00 0.00 0.00 91 1013.7
20260509132325 61 113 1.0 2.0 0.00 0.00 0.00 91 1013.8
20260509131822 61 182 0.0 3.0 0.00 0.00 0.00 91 1013.7
20260509131324 60 249 1.0 3.0 0.00 0.00 0.00 91 1013.6
20260509131134 60 79 1.0 3.0 0.00 0.00 0.00 91 1013.9
20260509130324 60 221 1.0 3.0 0.00 0.00 0.00 91 1014.0
20260509125824 60 217 0.0 3.0 0.00 0.00 0.00 92 1014.2
20260509125322 60 250 0.0 3.0 0.00 0.00 0.00 92 1013.9
20260509124820 59 254 0.0 3.0 0.00 0.00 0.00 92 1013.9
20260509124451 59 185 1.0 2.0 0.00 0.00 0.00 92 1014.0
20260509124419 59 30 1.0 3.0 0.00 0.00 0.00 92 1014.0
20260509123634 59 128 1.0 2.0 0.00 0.00 0.00 92 1014.2
20260509122811 58 86 0.0 2.0 0.00 0.00 0.00 93 1014.3
20260509122438 58 163 0.0 2.0 0.00 0.00 0.00 93 1014.4
20260509122409 58 186 0.0 2.0 0.00 0.00 0.00 93 1014.3
20260509121311 58 202 0.0 2.0 0.00 0.00 0.00 93 1014.0
20260509120806 58 168 0.0 2.0 0.00 0.00 0.00 93 1013.8
20260509120308 58 207 0.0 2.0 0.00 0.00 0.00 93 1013.9
20260509115807 57 234 0.0 3.0 0.00 0.00 0.00 93 1014.0
20260509115308 57 191 0.0 3.0 0.00 0.00 0.00 93 1013.8
20260509114808 57 196 1.0 2.0 0.00 0.00 0.00 93 1013.6
20260509114309 57 134 1.0 2.0 0.00 0.00 0.00 93 1013.6
20260509113807 57 124 0.0 2.0 0.00 0.00 0.00 93 1013.6
20260509113306 56 340 0.0 1.0 0.00 0.00 0.00 93 1014.0
20260509112806 56 340 0.0 2.0 0.00 0.00 0.00 92 1014.2
20260509112307 55 340 0.0 2.0 0.00 0.00 0.00 92 1014.0
20260509111804 55 281 0.0 2.0 0.00 0.00 0.00 92 1013.9
20260509111622 55 185 0.0 1.0 0.00 0.00 0.00 92 1013.9
20260509111117 55 185 0.0 1.0 0.00 0.00 0.00 92 1013.9
20260509110304 55 185 0.0 1.0 0.00 0.00 0.00 92 1013.8
20260509105802 54 185 0.0 1.0 0.00 0.00 0.00 92 1013.8
20260509105258 54 185 0.0 1.0 0.00 0.00 0.00 91 1013.9
20260509105112 54 185 0.0 1.0 0.00 0.00 0.00 91 1013.9
20260509104253 54 185 0.0 1.0 0.00 0.00 0.00 90 1013.8
20260509103754 54 185 0.0 1.0 0.00 0.00 0.00 90 1013.8
20260509103552 54 185 0.0 0.0 0.00 0.00 0.00 89 1013.6
20260509102749 54 185 0.0 0.0 0.00 0.00 0.00 88 1013.6
20260509102246 54 185 0.0 0.0 0.00 0.00 0.00 88 1013.5
20260509101746 54 185 0.0 0.0 0.00 0.00 0.00 88 1013.4
20260509101244 54 185 0.0 0.0 0.00 0.00 0.00 87 1013.4
20260509100748 54 185 0.0 0.0 0.00 0.00 0.00 87 1013.3
20260509100243 54 185 0.0 0.0 0.00 0.00 0.00 87 1013.1
20260509095739 54 185 0.0 0.0 0.00 0.00 0.00 87 1013.1
20260509095239 54 185 0.0 0.0 0.00 0.00 0.00 87 1013.0
20260509094735 54 185 0.0 0.0 0.00 0.00 0.00 87 1013.0
20260509094234 54 185 0.0 0.0 0.00 0.00 0.00 86 1013.1
20260509093730 55 185 0.0 0.0 0.00 0.00 0.00 86 1013.1
20260509093231 55 185 0.0 0.0 0.00 0.00 0.00 86 1013.1
20260509093037 55 185 0.0 0.0 0.00 0.00 0.00 85 1013.1
20260509092230 55 185 0.0 0.0 0.00 0.00 0.00 85 1013.2
20260509091731 55 185 0.0 0.0 0.00 0.00 0.00 85 1013.3
20260509091225 55 185 0.0 0.0 0.00 0.00 0.00 85 1013.2
20260509090722 55 185 0.0 0.0 0.00 0.00 0.00 85 1013.2
20260509090213 55 185 0.0 1.0 0.00 0.00 0.00 85 1013.0
20260509090017 55 185 0.0 1.0 0.00 0.00 0.00 85 1013.1
20260509085552 55 185 0.0 1.0 0.00 0.00 0.00 85 1012.9
20260509085057 56 185 1.0 2.0 0.00 0.00 0.00 85 1013.0
20260509084525 56 185 1.0 2.0 0.00 0.00 0.00 86 1012.9
20260509083711 55 198 1.0 2.0 0.00 0.00 0.00 85 1012.9
20260509083210 55 198 1.0 1.0 0.00 0.00 0.00 86 1013.0
20260509082710 55 198 0.0 1.0 0.00 0.00 0.00 85 1013.1
20260509082213 56 198 0.0 1.0 0.00 0.00 0.00 84 1013.1
20260509081710 56 198 0.0 1.0 0.00 0.00 0.00 83 1013.0
20260509081209 56 198 0.0 0.0 0.00 0.00 0.00 83 1012.9
20260509080710 56 198 0.0 0.0 0.00 0.00 0.00 83 1013.1
20260509080206 56 198 0.0 1.0 0.00 0.00 0.00 82 1013.1
20260509075708 56 198 0.0 1.0 0.00 0.00 0.00 82 1013.3
20260509075207 56 198 0.0 1.0 0.00 0.00 0.00 81 1013.5
20260509074705 56 198 0.0 0.0 0.00 0.00 0.00 81 1013.4
20260509074525 56 198 0.0 0.0 0.00 0.00 0.00 81 1013.6
20260509073704 56 198 0.0 0.0 0.00 0.00 0.00 80 1013.5
20260509073211 56 198 0.0 0.0 0.00 0.00 0.00 80 1013.5
20260509072705 56 198 0.0 1.0 0.00 0.00 0.00 79 1013.7
20260509072156 56 198 0.0 2.0 0.00 0.00 0.00 79 1013.8
20260509071652 56 198 0.0 2.0 0.00 0.00 0.00 78 1013.9
20260509071508 56 147 0.0 1.0 0.00 0.00 0.00 77 1014.0
20260509070649 56 147 0.0 1.0 0.00 0.00 0.00 77 1013.9
20260509070150 56 147 0.0 1.0 0.00 0.00 0.00 77 1014.0
20260509065840 56 147 0.0 0.0 0.00 0.00 0.00 77 1014.0
20260509065756 56 147 0.0 1.0 0.00 0.00 0.00 77 1013.9
20260509064643 56 147 0.0 0.0 0.00 0.00 0.00 77 1014.2
20260509064144 56 147 0.0 0.0 0.00 0.00 0.00 76 1014.3
20260509063644 56 147 0.0 0.0 0.00 0.00 0.00 77 1014.3
20260509063140 56 147 0.0 0.0 0.00 0.00 0.00 77 1014.4
20260509062638 56 147 0.0 0.0 0.00 0.00 0.00 78 1014.4
20260509062137 56 147 0.0 1.0 0.00 0.00 0.00 79 1014.5
20260509061945 56 147 0.0 1.0 0.00 0.00 0.00 80 1014.6
20260509061136 56 147 0.0 1.0 0.00 0.00 0.00 80 1014.7
20260509060636 57 147 0.0 1.0 0.00 0.00 0.00 80 1014.6
20260509060133 57 147 0.0 1.0 0.00 0.00 0.00 81 1014.8
20260509055635 57 147 0.0 1.0 0.00 0.00 0.00 80 1014.8
20260509055133 57 147 0.0 0.0 0.00 0.00 0.00 78 1014.8
20260509054631 57 147 0.0 1.0 0.00 0.00 0.00 77 1015.0
20260509054433 57 147 0.0 1.0 0.00 0.00 0.00 76 1015.1
20260509053942 57 147 0.0 0.0 0.00 0.00 0.00 76 1015.2
20260509053130 57 147 0.0 0.0 0.00 0.00 0.00 76 1015.2
20260509052623 58 147 0.0 0.0 0.00 0.00 0.00 76 1015.3
20260509052124 58 147 0.0 0.0 0.00 0.00 0.00 75 1015.4
20260509051624 58 147 0.0 0.0 0.00 0.00 0.00 75 1015.3
20260509051122 58 147 0.0 0.0 0.00 0.00 0.00 75 1015.3
20260509050625 58 147 0.0 0.0 0.00 0.00 0.00 75 1015.3
20260509050120 58 147 0.0 0.0 0.00 0.00 0.00 75 1015.4
20260509045620 58 147 0.0 0.0 0.00 0.00 0.00 76 1015.4
20260509045121 58 147 0.0 0.0 0.00 0.00 0.00 76 1015.5
20260509044614 58 147 0.0 0.0 0.00 0.00 0.00 76 1015.6
20260509044114 58 147 0.0 0.0 0.00 0.00 0.00 76 1015.8
20260509043616 58 147 0.0 1.0 0.00 0.00 0.00 76 1015.8
20260509043113 58 147 0.0 1.0 0.00 0.00 0.00 76 1015.8
20260509042616 59 147 0.0 1.0 0.00 0.00 0.00 77 1015.9
20260509042115 59 147 0.0 1.0 0.00 0.00 0.00 76 1015.9
20260509041612 59 147 0.0 1.0 0.00 0.00 0.00 76 1015.9
20260509041112 59 147 0.0 1.0 0.00 0.00 0.00 77 1015.9
20260509040613 59 147 0.0 1.0 0.00 0.00 0.00 78 1015.8
20260509040113 59 147 0.0 1.0 0.00 0.00 0.00 75 1015.8
20260509035614 59 147 0.0 1.0 0.00 0.00 0.00 74 1015.9
20260509035114 59 147 0.0 1.0 0.00 0.00 0.00 74 1015.8
20260509034610 59 147 0.0 1.0 0.00 0.00 0.00 75 1015.7
20260509034108 60 147 0.0 0.0 0.00 0.00 0.00 75 1015.7
20260509033608 60 147 0.0 0.0 0.00 0.00 0.00 76 1015.6
20260509033112 60 147 0.0 0.0 0.00 0.00 0.00 76 1015.5
20260509032607 60 147 0.0 0.0 0.00 0.00 0.00 74 1015.6
20260509032105 60 147 0.0 0.0 0.00 0.00 0.00 73 1015.6
20260509031917 60 147 0.0 0.0 0.00 0.00 0.00 73 1015.6
20260509031105 60 147 0.0 0.0 0.00 0.00 0.00 73 1015.7